DW9711 Weather Reports


time (UTC)temp
C
wind
direction
speed
KPH
gust
KPH
rain 1hr
cm
rain 24hr
cm
rain mn
cm
humidity
%
barometer
mb
20260510224517 22 15 4.8 14.5 0.00 0.00 0.00 55 1014.8
20260510224016 22 11 4.8 12.9 0.00 0.00 0.00 55 1014.7
20260510223516 22 21 6.4 17.7 0.00 0.00 0.00 54 1014.7
20260510223015 22 20 9.7 19.3 0.00 0.00 0.00 55 1014.7
20260510222515 22 10 4.8 19.3 0.00 0.00 0.00 55 1014.6
20260510222018 22 12 8.0 12.9 0.00 0.00 0.00 55 1014.7
20260510221515 22 17 6.4 16.1 0.00 0.00 0.00 55 1014.6
20260510221014 22 11 9.7 19.3 0.00 0.00 0.00 56 1014.6
20260510220515 22 355 9.7 19.3 0.00 0.00 0.00 54 1014.6
20260510220019 22 29 3.2 16.1 0.00 0.00 0.00 57 1014.6
20260510215514 22 360 8.0 20.9 0.00 0.00 0.00 56 1014.5
20260510215020 22 17 8.0 20.9 0.00 0.00 0.00 57 1014.5
20260510214513 23 11 12.9 19.3 0.00 0.00 0.00 56 1014.4
20260510214014 23 15 9.7 19.3 0.00 0.00 0.00 57 1014.4
20260510213516 23 15 9.7 17.7 0.00 0.00 0.00 58 1014.4
20260510213013 23 351 6.4 16.1 0.00 0.00 0.00 60 1014.3
20260510212513 23 16 4.8 16.1 0.00 0.00 0.00 60 1014.4
20260510212013 23 21 8.0 16.1 0.00 0.00 0.00 59 1014.4
20260510211513 23 327 6.4 17.7 0.00 0.00 0.00 59 1014.5
20260510211015 23 349 8.0 17.7 0.00 0.00 0.00 58 1014.4
20260510210512 24 28 8.0 16.1 0.00 0.00 0.00 59 1014.2
20260510210013 24 22 8.0 16.1 0.00 0.00 0.00 58 1014.3
20260510205517 24 19 9.7 19.3 0.00 0.00 0.00 59 1014.2
20260510205013 24 31 12.9 22.5 0.00 0.00 0.00 57 1014.2
20260510204516 25 43 9.7 22.5 0.00 0.00 0.00 57 1014.1
20260510204012 25 25 8.0 22.5 0.00 0.00 0.00 59 1014.2
20260510203512 25 22 9.7 22.5 0.00 0.00 0.00 59 1014.1
20260510203012 26 38 9.7 19.3 0.00 0.00 0.00 59 1014.1
20260510202511 26 12 9.7 19.3 0.00 0.00 0.00 59 1014.2
20260510202013 26 334 8.0 16.1 0.00 0.00 0.00 58 1014.2
20260510201511 26 355 4.8 17.7 0.00 0.00 0.00 58 1014.2
20260510201014 26 17 8.0 16.1 0.00 0.00 0.00 58 1014.2
20260510200511 26 343 4.8 12.9 0.00 0.00 0.00 56 1014.2
20260510200011 26 348 3.2 9.7 0.00 0.00 0.00 55 1014.2
20260510195509 26 11 0.0 6.4 0.00 0.00 0.00 55 1014.2
20260510195008 26 347 1.6 9.7 0.00 0.00 0.00 54 1014.3
20260510194507 26 5 3.2 9.7 0.00 0.00 0.00 57 1014.3
20260510194006 26 35 0.0 1.6 0.00 0.00 0.00 57 1014.5
20260510193506 26 22 0.0 1.6 0.00 0.00 0.00 54 1014.4
20260510193006 26 40 0.0 11.3 0.00 0.00 0.00 54 1014.4
20260510192505 26 36 3.2 11.3 0.00 0.00 0.00 54 1014.4
20260510192005 26 22 0.0 9.7 0.00 0.00 0.00 53 1014.3
20260510191506 26 21 0.0 8.0 0.00 0.00 0.00 54 1014.4
20260510191005 26 24 0.0 8.0 0.00 0.00 0.00 54 1014.4
20260510190504 26 18 0.0 9.7 0.00 0.00 0.00 56 1014.3
20260510190009 26 31 0.0 8.0 0.00 0.00 0.00 56 1014.3
20260510185504 25 34 0.0 1.6 0.00 0.00 0.00 54 1014.4
20260510185004 25 21 0.0 1.6 0.00 0.00 0.00 56 1014.3
20260510184504 25 335 0.0 8.0 0.00 0.00 0.00 55 1014.4
20260510184003 25 344 0.0 8.0 0.00 0.00 0.00 57 1014.3
20260510183503 25 333 0.0 9.7 0.00 0.00 0.00 56 1014.3
20260510183003 25 319 0.0 9.7 0.00 0.00 0.00 53 1014.3
20260510182502 26 338 1.6 9.7 0.00 0.00 0.00 56 1014.2
20260510182001 26 14 1.6 9.7 0.00 0.00 0.00 55 1014.3
20260510181602 25 337 0.0 6.4 0.00 0.00 0.00 55 1014.2
20260510181059 25 360 0.0 9.7 0.00 0.00 0.00 57 1014.3
20260510180558 25 342 0.0 9.7 0.00 0.00 0.00 57 1014.4
20260510180109 25 340 1.6 8.0 0.00 0.00 0.00 57 1014.4
20260510175557 25 309 0.0 1.6 0.00 0.00 0.00 55 1014.4
20260510175057 25 309 0.0 1.6 0.00 0.00 0.00 56 1014.5
20260510174559 25 335 0.0 1.6 0.00 0.00 0.00 54 1014.4
20260510174058 25 12 0.0 11.3 0.00 0.00 0.00 56 1014.4
20260510173554 25 355 0.0 11.3 0.00 0.00 0.00 56 1014.5
20260510173054 25 22 0.0 6.4 0.00 0.00 0.00 56 1014.6
20260510172556 25 340 0.0 9.7 0.00 0.00 0.00 56 1014.7
20260510172054 25 336 1.6 9.7 0.00 0.00 0.00 57 1014.7
20260510171552 25 11 1.6 9.7 0.00 0.00 0.00 56 1014.8
20260510171052 24 40 0.0 11.3 0.00 0.00 0.00 58 1014.8
20260510170552 24 325 1.6 11.3 0.00 0.00 0.00 55 1014.9
20260510170053 25 17 1.6 11.3 0.00 0.00 0.00 56 1014.9
20260510165551 24 35 1.6 9.7 0.00 0.00 0.00 55 1014.9
20260510165050 24 11 1.6 9.7 0.00 0.00 0.00 57 1014.9
20260510164555 24 12 0.0 9.7 0.00 0.00 0.00 55 1014.9
20260510164048 24 351 0.0 9.7 0.00 0.00 0.00 56 1014.9
20260510163548 23 19 3.2 9.7 0.00 0.00 0.00 57 1015.0
20260510163050 24 344 0.0 3.2 0.00 0.00 0.00 54 1014.9
20260510162548 23 342 0.0 11.3 0.00 0.00 0.00 57 1014.9
20260510162047 24 289 3.2 11.3 0.00 0.00 0.00 54 1014.9
20260510161546 23 5 1.6 8.0 0.00 0.00 0.00 54 1014.8
20260510161046 23 319 0.0 6.4 0.00 0.00 0.00 56 1014.7
20260510160546 23 346 0.0 9.7 0.00 0.00 0.00 59 1014.7
20260510160046 23 355 1.6 9.7 0.00 0.00 0.00 58 1014.7
20260510155545 23 327 3.2 11.3 0.00 0.00 0.00 61 1014.6
20260510155044 23 313 6.4 11.3 0.00 0.00 0.00 60 1014.6
20260510154550 24 350 4.8 11.3 0.00 0.00 0.00 60 1014.5
20260510154041 23 21 1.6 11.3 0.00 0.00 0.00 60 1014.4
20260510153540 23 338 3.2 12.9 0.00 0.00 0.00 60 1014.3
20260510153040 24 329 4.8 14.5 0.00 0.00 0.00 59 1014.3
20260510152541 24 9 4.8 12.9 0.00 0.00 0.00 60 1014.2
20260510152037 24 338 3.2 9.7 0.00 0.00 0.00 57 1014.1
20260510151539 24 337 4.8 9.7 0.00 0.00 0.00 55 1014.0
20260510151036 24 309 1.6 8.0 0.00 0.00 0.00 53 1014.0
20260510150536 24 323 1.6 8.0 0.00 0.00 0.00 51 1013.9
20260510150038 24 292 0.0 4.8 0.00 0.00 0.00 53 1013.9
20260510145538 24 244 0.0 3.2 0.00 0.00 0.00 55 1013.9
20260510145033 24 232 0.0 6.4 0.00 0.00 0.00 54 1013.8
20260510144544 24 269 0.0 6.4 0.00 0.00 0.00 52 1013.8
20260510144032 24 200 0.0 6.4 0.00 0.00 0.00 56 1013.7
20260510143529 23 204 0.0 4.8 0.00 0.00 0.00 54 1013.7
20260510143028 23 207 0.0 4.8 0.00 0.00 0.00 54 1013.6
20260510142528 23 207 1.6 4.8 0.00 0.00 0.00 56 1013.5
20260510142028 23 205 0.0 3.2 0.00 0.00 0.00 55 1013.5
20260510141526 23 204 0.0 3.2 0.00 0.00 0.00 57 1013.6
20260510141025 22 205 0.0 4.8 0.00 0.00 0.00 58 1013.5
20260510140523 22 205 0.0 8.0 0.00 0.00 0.00 61 1013.5
20260510140022 22 207 1.6 4.8 0.00 0.00 0.00 59 1013.5
20260510135521 21 204 0.0 4.8 0.00 0.00 0.00 62 1013.5
20260510135020 21 211 0.0 3.2 0.00 0.00 0.00 64 1013.5
20260510134519 21 216 0.0 1.6 0.00 0.00 0.00 66 1013.5
20260510134017 21 224 0.0 0.0 0.00 0.00 0.00 65 1013.6
20260510133515 20 223 0.0 0.0 0.00 0.00 0.00 65 1013.6
20260510133014 20 223 0.0 0.0 0.00 0.00 0.00 67 1013.6
20260510132513 20 224 0.0 0.0 0.00 0.00 0.00 69 1013.6
20260510132014 19 226 0.0 0.0 0.00 0.00 0.00 70 1013.6
20260510131525 18 226 0.0 0.0 0.00 0.00 0.00 70 1013.7
20260510131010 18 227 0.0 0.0 0.00 0.00 0.00 71 1013.6
20260510130514 18 227 0.0 0.0 0.00 0.00 0.00 70 1013.7
20260510130010 18 227 0.0 0.0 0.00 0.00 0.00 71 1013.6
20260510125509 18 232 0.0 0.0 0.00 0.00 0.00 72 1013.6
20260510125007 17 232 0.0 0.0 0.00 0.00 0.00 72 1013.5
20260510124506 17 232 0.0 0.0 0.00 0.00 0.00 74 1013.4
20260510124004 17 234 0.0 0.0 0.00 0.00 0.00 74 1013.2
20260510123505 16 236 0.0 0.0 0.00 0.00 0.00 74 1013.3
20260510123003 16 236 0.0 0.0 0.00 0.00 0.00 73 1013.3
20260510122502 16 267 0.0 0.0 0.00 0.00 0.00 74 1013.3
20260510122003 16 267 0.0 0.0 0.00 0.00 0.00 74 1013.2
20260510121501 16 267 0.0 0.0 0.00 0.00 0.00 74 1013.3
20260510121100 15 267 0.0 0.0 0.00 0.00 0.00 73 1013.3
20260510120601 15 267 0.0 0.0 0.00 0.00 0.00 74 1013.2
20260510120059 15 267 0.0 0.0 0.00 0.00 0.00 74 1013.1
20260510115557 15 267 0.0 0.0 0.00 0.00 0.00 74 1013.0
20260510115057 15 267 0.0 0.0 0.00 0.00 0.00 76 1012.9
20260510114556 14 267 0.0 0.0 0.00 0.00 0.00 77 1012.8
20260510114054 13 272 0.0 0.0 0.00 0.00 0.00 78 1012.6
20260510113553 13 272 0.0 0.0 0.00 0.00 0.00 80 1012.6
20260510113059 13 333 0.0 0.0 0.00 0.00 0.00 80 1012.4
20260510112550 13 333 0.0 0.0 0.00 0.00 0.00 80 1012.3
20260510112050 13 333 0.0 0.0 0.00 0.00 0.00 80 1012.2
20260510111549 13 333 0.0 0.0 0.00 0.00 0.00 80 1012.2
20260510111049 13 333 0.0 0.0 0.00 0.00 0.00 80 1012.2
20260510110548 13 333 0.0 0.0 0.00 0.00 0.00 80 1012.1
20260510110046 13 333 0.0 0.0 0.00 0.00 0.00 80 1012.0
20260510105546 13 333 0.0 0.0 0.00 0.00 0.00 79 1012.0
20260510105044 13 333 0.0 0.0 0.00 0.00 0.00 79 1012.0
20260510104544 13 333 0.0 0.0 0.00 0.00 0.00 78 1012.0
20260510104043 13 333 0.0 0.0 0.00 0.00 0.00 77 1012.0
20260510103543 13 333 0.0 0.0 0.00 0.00 0.00 78 1012.0
20260510103043 13 333 0.0 0.0 0.00 0.00 0.00 78 1012.0
20260510102543 13 333 0.0 0.0 0.00 0.00 0.00 78 1012.0
20260510102042 13 333 0.0 0.0 0.00 0.00 0.00 78 1012.0
20260510101551 13 333 0.0 0.0 0.00 0.00 0.00 76 1012.1
20260510101041 13 333 0.0 0.0 0.00 0.00 0.00 77 1012.1
20260510100541 13 333 0.0 0.0 0.00 0.00 0.00 76 1012.3
20260510100041 13 333 0.0 0.0 0.00 0.00 0.00 76 1012.0
20260510095540 14 333 0.0 0.0 0.00 0.00 0.00 75 1012.2
20260510095038 14 333 0.0 0.0 0.00 0.00 0.00 74 1012.0
20260510094539 14 333 0.0 0.0 0.00 0.00 0.00 74 1011.9
20260510094038 14 333 0.0 0.0 0.00 0.00 0.00 74 1011.9
20260510093537 14 333 0.0 0.0 0.00 0.00 0.00 73 1011.8
20260510093036 15 330 0.0 0.0 0.00 0.00 0.00 71 1012.0
20260510092535 15 169 0.0 0.0 0.00 0.00 0.00 70 1011.4
20260510092035 15 169 0.0 0.0 0.00 0.00 0.00 70 1011.3
20260510091533 15 169 0.0 0.0 0.00 0.00 0.00 68 1011.2
20260510091033 15 169 0.0 0.0 0.00 0.00 0.00 70 1011.2
20260510090532 15 169 0.0 0.0 0.00 0.00 0.00 69 1011.0
20260510090032 15 169 0.0 0.0 0.00 0.00 0.00 69 1011.0
20260510085531 16 169 0.0 0.0 0.00 0.00 0.00 70 1010.9
20260510085030 16 169 0.0 0.0 0.00 0.00 0.00 67 1010.9
20260510084534 16 169 0.0 0.0 0.00 0.00 0.00 68 1010.8
20260510084028 16 169 0.0 0.0 0.00 0.00 0.00 67 1010.8
20260510083528 16 169 0.0 0.0 0.00 0.00 0.00 67 1010.9
20260510083025 16 169 0.0 0.0 0.00 0.00 0.00 67 1010.8
20260510082525 16 169 0.0 0.0 0.00 0.00 0.00 65 1010.7
20260510082025 16 169 0.0 0.0 0.00 0.00 0.00 65 1010.7
20260510081523 16 169 0.0 0.0 0.00 0.00 0.00 66 1010.6
20260510081022 17 169 0.0 0.0 0.00 0.00 0.00 65 1010.6
20260510080523 17 169 0.0 0.0 0.00 0.00 0.00 63 1010.5
20260510080021 17 169 0.0 0.0 0.00 0.00 0.00 63 1010.3
20260510075520 17 169 0.0 0.0 0.00 0.00 0.00 62 1010.4
20260510075020 17 169 0.0 0.0 0.00 0.00 0.00 62 1010.4
20260510074520 17 169 0.0 0.0 0.00 0.00 0.00 62 1010.4
20260510074020 17 169 0.0 0.0 0.00 0.00 0.00 62 1010.4
20260510073518 17 169 0.0 0.0 0.00 0.00 0.00 62 1010.4
20260510073024 17 169 0.0 0.0 0.00 0.00 0.00 63 1010.5
20260510072517 17 169 0.0 0.0 0.00 0.00 0.00 62 1010.6
20260510072020 17 169 0.0 0.0 0.00 0.00 0.00 61 1010.5
20260510071514 18 169 0.0 0.0 0.00 0.00 0.00 61 1010.6
20260510071014 18 169 0.0 0.0 0.00 0.00 0.00 59 1010.5
20260510070513 18 169 0.0 0.0 0.00 0.00 0.00 58 1010.6
20260510070013 18 169 0.0 0.0 0.00 0.00 0.00 57 1010.6
20260510065513 18 169 0.0 0.0 0.00 0.00 0.00 57 1010.6
20260510065012 18 169 0.0 0.0 0.00 0.00 0.00 57 1010.5
20260510064532 18 168 0.0 0.0 0.00 0.00 0.00 57 1010.4
20260510064012 18 168 0.0 0.0 0.00 0.00 0.00 57 1010.4
20260510063510 18 168 0.0 0.0 0.00 0.00 0.00 57 1010.4
20260510063010 18 168 0.0 0.0 0.00 0.00 0.00 57 1010.3
20260510062510 18 168 0.0 0.0 0.00 0.00 0.00 57 1010.3
20260510062010 18 168 0.0 0.0 0.00 0.00 0.00 57 1010.2
20260510061509 18 168 0.0 0.0 0.00 0.00 0.00 57 1010.3
20260510061009 18 168 0.0 0.0 0.00 0.00 0.00 57 1010.3
20260510060507 18 168 0.0 0.0 0.00 0.00 0.00 57 1010.3
20260510060010 18 168 0.0 0.0 0.00 0.00 0.00 56 1010.4
20260510055506 18 168 0.0 0.0 0.00 0.00 0.00 56 1010.3
20260510055005 19 168 0.0 0.0 0.00 0.00 0.00 55 1010.3
20260510054505 19 168 0.0 0.0 0.00 0.00 0.00 55 1010.3
20260510054004 19 168 0.0 0.0 0.00 0.00 0.00 55 1010.2
20260510053504 19 168 0.0 0.0 0.00 0.00 0.00 54 1010.2
20260510053007 19 168 0.0 0.0 0.00 0.00 0.00 55 1010.2
20260510052503 19 168 0.0 0.0 0.00 0.00 0.00 54 1010.2
20260510052002 19 168 0.0 0.0 0.00 0.00 0.00 55 1010.2
20260510051502 19 168 0.0 0.0 0.00 0.00 0.00 55 1010.1
20260510051005 19 168 0.0 0.0 0.00 0.00 0.00 55 1010.1
20260510050501 19 168 0.0 0.0 0.00 0.00 0.00 56 1010.1
20260510045604 19 168 0.0 0.0 0.00 0.00 0.00 55 1010.1
20260510045059 19 168 0.0 0.0 0.00 0.00 0.00 55 1010.1
20260510044607 19 168 0.0 0.0 0.00 0.00 0.00 55 1010.1
20260510044058 19 168 0.0 0.0 0.00 0.00 0.00 56 1010.0
20260510043559 19 168 0.0 0.0 0.00 0.00 0.00 56 1010.1
20260510043058 19 168 0.0 0.0 0.00 0.00 0.00 55 1010.0
20260510042559 19 168 0.0 0.0 0.00 0.00 0.00 55 1009.9
20260510042058 19 168 0.0 0.0 0.00 0.00 0.00 54 1009.9
20260510041558 19 168 0.0 0.0 0.00 0.00 0.00 55 1009.9
20260510041057 19 168 0.0 0.0 0.00 0.00 0.00 55 1009.9
20260510040559 20 168 0.0 0.0 0.00 0.00 0.00 55 1009.9
20260510040058 20 168 0.0 0.0 0.00 0.00 0.00 55 1010.0
20260510035558 20 168 0.0 0.0 0.00 0.00 0.00 55 1010.0
20260510035057 20 168 0.0 0.0 0.00 0.00 0.00 55 1010.0
20260510034617 20 168 0.0 0.0 0.00 0.00 0.00 55 1010.0
20260510034057 20 168 0.0 0.0 0.00 0.00 0.00 55 1010.0
20260510033556 20 168 0.0 0.0 0.00 0.00 0.00 56 1010.1
20260510033100 20 168 0.0 0.0 0.00 0.00 0.00 55 1010.1
20260510032556 20 168 0.0 0.0 0.00 0.00 0.00 55 1010.1
20260510032056 19 167 0.0 0.0 0.00 0.00 0.00 57 1010.1
20260510031556 20 167 0.0 0.0 0.00 0.00 0.00 58 1010.1
20260510031055 20 167 0.0 0.0 0.00 0.00 0.00 58 1010.1
20260510030556 19 167 0.0 0.0 0.00 0.00 0.00 58 1010.0
20260510030059 19 167 0.0 0.0 0.00 0.00 0.00 59 1010.0
20260510025554 19 167 0.0 0.0 0.00 0.00 0.00 58 1010.0
20260510025054 19 167 0.0 0.0 0.00 0.00 0.00 61 1009.9
20260510024557 18 167 0.0 0.0 0.00 0.00 0.00 60 1009.8
20260510024052 18 167 0.0 0.0 0.00 0.00 0.00 62 1009.9
20260510023552 18 167 0.0 0.0 0.00 0.00 0.00 64 1009.8
20260510023052 19 167 0.0 0.0 0.00 0.00 0.00 64 1009.8
20260510022554 19 167 0.0 0.0 0.00 0.00 0.00 61 1009.8
20260510022051 19 167 0.0 0.0 0.00 0.00 0.00 61 1009.7
20260510021600 20 167 0.0 0.0 0.00 0.00 0.00 62 1009.7
20260510021050 20 167 0.0 0.0 0.00 0.00 0.00 60 1009.6
20260510020550 20 167 0.0 0.0 0.00 0.00 0.00 60 1009.6
20260510020049 20 167 0.0 0.0 0.00 0.00 0.00 59 1009.6
20260510015548 20 167 0.0 0.0 0.00 0.00 0.00 58 1009.4
20260510015049 20 167 0.0 0.0 0.00 0.00 0.00 58 1009.3
20260510014552 20 167 0.0 0.0 0.00 0.00 0.00 58 1009.2
20260510014046 20 167 0.0 0.0 0.00 0.00 0.00 56 1009.2
20260510013547 21 167 0.0 0.0 0.00 0.00 0.00 57 1009.1
20260510013045 21 167 0.0 0.0 0.00 0.00 0.00 57 1009.0
20260510012545 21 167 0.0 0.0 0.00 0.00 0.00 57 1009.0
20260510012045 21 167 0.0 0.0 0.00 0.00 0.00 56 1008.9
20260510011545 21 167 0.0 0.0 0.00 0.00 0.00 54 1008.9
20260510011044 22 167 0.0 0.0 0.00 0.00 0.00 53 1008.8
20260510010544 22 167 0.0 0.0 0.00 0.00 0.00 51 1008.7
20260510010047 22 167 0.0 0.0 0.00 0.00 0.00 50 1008.7
20260510005545 23 167 0.0 0.0 0.00 0.00 0.00 50 1008.6
20260510005044 23 167 0.0 0.0 0.00 0.00 0.00 49 1008.5
20260510004544 23 167 0.0 0.0 0.00 0.00 0.00 47 1008.5
20260510004043 23 167 0.0 0.0 0.00 0.00 0.00 46 1008.4
20260510003544 23 167 0.0 0.0 0.00 0.00 0.00 46 1008.4
20260510003058 24 225 0.0 0.0 0.00 0.00 0.00 45 1008.4
20260510002543 24 225 0.0 0.0 0.00 0.00 0.00 44 1008.3
20260510002043 25 225 0.0 0.0 0.00 0.00 0.00 42 1008.3
20260510001543 25 225 0.0 0.0 0.00 0.00 0.00 41 1008.2
20260510001043 25 225 0.0 0.0 0.00 0.00 0.00 40 1008.2
20260510000544 25 225 0.0 0.0 0.00 0.00 0.00 39 1008.1
20260510000046 26 225 0.0 0.0 0.00 0.00 0.00 38 1008.1
20260509235543 26 225 0.0 0.0 0.00 0.00 0.00 36 1008.0
20260509235043 26 244 0.0 0.0 0.00 0.00 0.00 34 1007.9
20260509234543 27 244 0.0 0.0 0.00 0.00 0.00 33 1007.9
20260509234042 26 244 0.0 0.0 0.00 0.00 0.00 34 1007.8
20260509233543 26 244 0.0 0.0 0.00 0.00 0.00 34 1007.9
20260509233042 27 244 0.0 0.0 0.00 0.00 0.00 34 1007.9
20260509232542 27 244 0.0 0.0 0.00 0.00 0.00 33 1007.9
20260509232042 26 244 0.0 0.0 0.00 0.00 0.00 34 1007.9
20260509231542 27 244 0.0 0.0 0.00 0.00 0.00 32 1008.0
20260509231041 27 244 0.0 0.0 0.00 0.00 0.00 33 1008.0
20260509230542 27 250 0.0 0.0 0.00 0.00 0.00 34 1008.0
20260509230041 27 210 0.0 0.0 0.00 0.00 0.00 34 1008.1
20260509225543 27 210 0.0 0.0 0.00 0.00 0.00 33 1008.0
20260509225041 27 213 0.0 0.0 0.00 0.00 0.00 35 1008.0